Weather History for KIML - December, 2012

Change the Weather History Date:

Saturday, December 15, 2012

  Actual Average Record
Temperature  
Mean Temperature 40 °F 28 °F  
Max Temperature 50 °F 41 °F 66 °F (1977)
Min Temperature 29 °F 15 °F -24 °F (1901)
Degree Days  
Heating Degree Days 25 37  
Month to date heating degree days 425 535  
Cooling Degree Days 0 0  
Month to date cooling degree days 0 0  
Year to date cooling degree days 1382 963  
Moisture  
Dew Point 26 °F    
Average Humidity 68    
Maximum Humidity 96    
Minimum Humidity 39    
Precipitation  
Precipitation 0.00 in 0.00 in 0.25 in (1902)
Sea Level Pressure  
Sea Level Pressure 29.71 in    
Wind  
Wind Speed 10 mph (NNW)    
Max Wind Speed 17 mph    
Max Gust Speed 22 mph    
Visibility 8 miles    
Events Snow    
T = Trace of Precipitation, MM = Missing Value Source: NWS Daily Summary

Daily Weather History Graph

Daily Weather History Graph

Search for Another Location

Airport or City:

Trip Planner

Search our weather history database for the weather conditions in past years. The results will help you decide how hot, cold, wet, or windy it might be!

Date:

Astronomy

Dec. 15, 2012 Rise Set
Actual Time 7:03 AM MST 4:20 PM MST
Civil Twilight 6:32 AM MST 4:51 PM MST
Nautical Twilight 5:57 AM MST 5:25 PM MST
Astronomical Twilight 5:24 AM MST 5:59 PM MST
Moon 8:56 AM MST (12/15) 7:27 PM MST (12/15)
Length of Visible Light 10h 19m
Length of Day
9h 17m
Waxing Crescent, 9% of the Moon is Illuminated
Dec 15
Waxing Crescent
Dec 19
First Quarter
Dec 28
Full
Jan 4
Last Quarter
Jan 11
New

Hourly Weather History & Observations

Time (MST) Temp. Windchill Dew Point Humidity Pressure Visibility Wind Dir Wind Speed Gust Speed Precip Events Conditions
12:32 AM 33.8 °F 25.8 °F 32.0 °F 93% 29.50 in 10.0 mi NW 10.4 mph - N/A   Overcast
12:53 AM 34.0 °F 26.6 °F 32.0 °F 92% 29.53 in 10.0 mi NNW 9.2 mph - N/A   Mostly Cloudy
1:06 AM 33.8 °F 25.8 °F 30.2 °F 87% 29.50 in 10.0 mi NW 10.4 mph - N/A   Scattered Clouds
1:53 AM 33.1 °F 24.9 °F 30.9 °F 92% 29.57 in 10.0 mi WNW 10.4 mph - N/A   Mostly Cloudy
2:53 AM 34.0 °F 26.0 °F 30.0 °F 85% 29.59 in 10.0 mi WNW 10.4 mph - N/A   Overcast
3:53 AM 35.1 °F 25.9 °F 28.9 °F 78% 29.62 in 10.0 mi WNW 13.8 mph - N/A   Overcast
4:53 AM 34.0 °F 23.8 °F 26.1 °F 73% 29.65 in 10.0 mi NW 16.1 mph - N/A   Overcast
5:53 AM 33.1 °F 23.4 °F 25.0 °F 72% 29.68 in 10.0 mi NW 13.8 mph - N/A   Clear
6:53 AM 33.1 °F 22.6 °F 23.0 °F 66% 29.70 in 10.0 mi NW 16.1 mph - N/A   Clear
7:53 AM 34.0 °F 25.0 °F 21.9 °F 61% 29.71 in 10.0 mi NW 12.7 mph - N/A   Clear
8:53 AM 35.1 °F 29.3 °F 23.0 °F 61% 29.73 in 10.0 mi NW 6.9 mph - N/A   Clear
9:53 AM 42.1 °F 36.1 °F 25.0 °F 51% 29.73 in 10.0 mi NNW 10.4 mph - N/A   Clear
10:53 AM 44.1 °F 37.4 °F 26.1 °F 49% 29.69 in 10.0 mi NNW 13.8 mph - N/A   Clear
11:53 AM 46.0 °F 40.6 °F 25.0 °F 44% 29.69 in 10.0 mi NW 11.5 mph - N/A   Clear
12:53 PM 46.9 °F - 25.0 °F 42% 29.69 in 10.0 mi NNW 12.7 mph - N/A   Clear
1:53 PM 48.0 °F - 25.0 °F 41% 29.70 in 10.0 mi NW 12.7 mph - N/A   Partly Cloudy
2:53 PM 46.9 °F - 26.1 °F 44% 29.73 in 10.0 mi NNW 6.9 mph - N/A   Mostly Cloudy
3:53 PM 45.0 °F 41.8 °F 26.1 °F 48% 29.74 in 10.0 mi North 5.8 mph - N/A   Mostly Cloudy
4:53 PM 37.9 °F 32.7 °F 26.1 °F 62% 29.76 in 10.0 mi NNE 6.9 mph - N/A   Overcast
5:53 PM 33.1 °F 26.1 °F 25.0 °F 72% 29.78 in 10.0 mi North 8.1 mph - N/A   Mostly Cloudy
6:53 PM 32.0 °F 24.2 °F 24.1 °F 73% 29.79 in 10.0 mi North 9.2 mph - N/A   Clear
7:53 PM 32.0 °F 26.4 °F 25.0 °F 75% 29.80 in 10.0 mi North 5.8 mph - N/A   Partly Cloudy
8:53 PM 33.1 °F 28.7 °F 25.0 °F 72% 29.81 in 10.0 mi NW 4.6 mph - N/A   Overcast
9:53 PM 33.1 °F 26.1 °F 24.1 °F 70% 29.80 in 10.0 mi NNW 8.1 mph - N/A   Overcast
10:06 PM 33.8 °F 27.0 °F 24.8 °F 70% 29.75 in 7.0 mi NW 8.1 mph - N/A Snow Light Snow
10:21 PM 30.2 °F 22.6 °F 26.6 °F 86% 29.76 in 2.0 mi NW 8.1 mph - 0.00 in Snow Light Snow
10:45 PM 30.2 °F 25.4 °F 26.6 °F 86% 29.76 in 1.2 mi NW 4.6 mph - N/A Snow Light Snow
10:53 PM 30.0 °F 25.2 °F 27.0 °F 88% 29.81 in 1.0 mi NNW 4.6 mph - 0.00 in Snow Light Snow
11:37 PM 28.4 °F 21.2 °F 26.6 °F 93% 29.77 in 0.8 mi North 6.9 mph - 0.00 in Snow Light Snow
11:53 PM 28.9 °F 21.1 °F 27.0 °F 92% 29.81 in 0.8 mi North 8.1 mph - 0.00 in Snow Light Snow